Terminal Aerodrome Forecast
Issued by NWS

Home | Current Version | Previous Version | Text Only | Print | Product List | Glossary On
Versions: 1 2 3 4 5 6 7 8 9 10 11 12 13 14 15 16 17 18 19 20 21 22 23 24 25 26 27 28 29 30 31 32 33 34 35 36 37 38 39 40
000
FTAK31 PANC 190917 AAA
TAFASN
TAF AMD
PASN 190917Z 1909/2006 34017KT P6SM -SHSN OVC008
      TEMPO 1909/1913 4SM -SN BR SCT008 OVC015
     FM191300 34020KT P6SM SCT007 BKN030
     FM191600 33017KT P6SM OVC007=

USA.gov is the U.S. government's official web portal to all federal, state and local government web resources and services.